Weather History for KMGY - May, 2013

Change the Weather History Date:

Thursday, May 16, 2013

  Actual Average (KFFO) Record (KFFO)
Temperature  
Mean Temperature 70 °F -  
Max Temperature 78 °F 71 °F 82 °F (1999)
Min Temperature 63 °F 49 °F 35 °F (2014)
Cooling Degree Days 6    
Growing Degree Days 20 (Base 50)    
Moisture  
Dew Point 61 °F    
Average Humidity 78    
Maximum Humidity 94    
Minimum Humidity 50    
Precipitation  
Precipitation 0.19 in - - ()
Sea Level Pressure  
Sea Level Pressure 29.92 in    
Wind  
Wind Speed 7 mph (SW)    
Max Wind Speed 26 mph    
Max Gust Speed 37 mph    
Visibility 8 miles    
Events Rain , Thunderstorm    
Averages and records for this station are not official NWS values.
T = Trace of Precipitation, MM = Missing Value Source: NWS Daily Summary

Daily Weather History Graph

Daily Weather History Graph

Search for Another Location

Airport or City:

Trip Planner

Search our weather history database for the weather conditions in past years. The results will help you decide how hot, cold, wet, or windy it might be!

Date:

Astronomy

May. 16, 2013 Rise Set
Actual Time 6:21 AM EDT 8:45 PM EDT
Civil Twilight 5:51 AM EDT 9:16 PM EDT
Nautical Twilight 5:13 AM EDT 9:53 PM EDT
Astronomical Twilight 4:31 AM EDT 10:35 PM EDT
Moon 11:53 AM EDT (5/16) 1:06 AM EDT (5/16)
Length of Visible Light 15h 25m
Length of Day
14h 23m
Waxing Crescent, 35% of the Moon is Illuminated
May 16
Waxing Crescent
May 18
First Quarter
May 25
Full
May 31
Last Quarter
Jun 8
New

Hourly Weather History & Observations

Time (EDT) Temp. Dew Point Humidity Pressure Visibility Wind Dir Wind Speed Gust Speed Precip Events Conditions
12:53 AM 73.9 °F 54.0 °F 50% 29.84 in 10.0 mi SW 12.7 mph - N/A   Clear
1:53 AM 73.0 °F 55.0 °F 53% 29.84 in 10.0 mi SW 8.1 mph - N/A   Partly Cloudy
2:53 AM 71.1 °F 55.9 °F 59% 29.83 in 10.0 mi SW 9.2 mph - N/A   Mostly Cloudy
3:53 AM 70.0 °F 57.0 °F 63% 29.83 in 10.0 mi SW 9.2 mph - N/A   Partly Cloudy
4:51 AM 69.8 °F 57.2 °F 64% 29.86 in 10.0 mi SW 8.1 mph - N/A Thunderstorm Clear
4:53 AM 69.1 °F 57.0 °F 65% 29.83 in 10.0 mi SW 8.1 mph - N/A Thunderstorm Clear
5:53 AM 64.9 °F 62.1 °F 90% 29.86 in 10.0 mi Calm Calm - 0.02 in   Mostly Cloudy
6:53 AM 64.0 °F 62.1 °F 93% 29.87 in 6.0 mi Calm Calm - N/A   Clear
7:53 AM 64.9 °F 61.0 °F 87% 29.88 in 8.0 mi SSW 4.6 mph - N/A   Scattered Clouds
8:19 AM 66.2 °F 60.8 °F 83% 29.91 in 9.0 mi SSW 5.8 mph - 0.00 in Rain , Thunderstorm Light Rain
8:46 AM 66.2 °F 60.8 °F 83% 29.91 in 9.0 mi Variable 3.5 mph - 0.00 in Thunderstorm Mostly Cloudy
8:53 AM 66.9 °F 60.1 °F 79% 29.89 in 9.0 mi Calm Calm - 0.00 in Thunderstorm Thunderstorm
9:26 AM 66.2 °F 60.8 °F 83% 29.92 in 9.0 mi SW 4.6 mph - 0.00 in   Scattered Clouds
9:53 AM 68.0 °F 60.1 °F 76% 29.91 in 10.0 mi WSW 4.6 mph - 0.00 in   Partly Cloudy
10:53 AM 71.1 °F 61.0 °F 70% 29.91 in 10.0 mi WSW 5.8 mph - N/A   Partly Cloudy
11:34 AM 71.6 °F 62.6 °F 73% 29.95 in 10.0 mi Calm Calm - N/A   Mostly Cloudy
11:53 AM 72.0 °F 63.0 °F 73% 29.93 in 10.0 mi WNW 5.8 mph - N/A   Overcast
12:53 PM 73.0 °F 63.0 °F 71% 29.91 in 9.0 mi SSW 4.6 mph - N/A   Overcast
1:16 PM 73.4 °F 64.4 °F 73% 29.93 in 8.0 mi SW 5.8 mph - N/A   Scattered Clouds
1:53 PM 75.9 °F 62.1 °F 62% 29.90 in 8.0 mi Variable 3.5 mph - N/A   Partly Cloudy
2:53 PM 77.0 °F 63.0 °F 62% 29.92 in 9.0 mi SW 5.8 mph - N/A   Partly Cloudy
3:24 PM 75.2 °F 60.8 °F 61% 29.93 in 10.0 mi SSW 4.6 mph - N/A Thunderstorm Mostly Cloudy
3:51 PM 71.6 °F 62.6 °F 73% 29.95 in 7.0 mi SW 19.6 mph 28.8 mph N/A Thunderstorm Overcast
3:53 PM 69.1 °F 62.1 °F 78% 29.93 in 5.0 mi SW 26.5 mph 35.7 mph 0.01 in Rain , Thunderstorm Light Thunderstorms and Rain
4:04 PM 64.4 °F 60.8 °F 88% 29.96 in 2.5 mi SW 8.1 mph 36.8 mph 0.02 in Rain , Thunderstorm Thunderstorms and Rain
4:22 PM 66.2 °F 64.4 °F 94% 29.96 in 1.5 mi WSW 8.1 mph 17.3 mph 0.12 in Rain , Thunderstorm Thunderstorms and Rain
4:36 PM 66.2 °F 64.4 °F 94% 29.97 in 2.5 mi Variable 6.9 mph - 0.15 in Rain , Thunderstorm Light Thunderstorms and Rain
4:40 PM 66.2 °F 64.4 °F 94% 29.97 in 3.0 mi WSW 9.2 mph - 0.15 in Rain , Thunderstorm Light Thunderstorms and Rain
4:53 PM 66.0 °F 63.0 °F 90% 29.95 in 10.0 mi WSW 9.2 mph - 0.16 in Rain Light Rain
5:05 PM 66.2 °F 62.6 °F 88% 29.96 in 10.0 mi SW 8.1 mph - 0.00 in Rain Light Rain
5:53 PM 66.9 °F 62.1 °F 84% 29.93 in 10.0 mi Calm Calm - 0.00 in   Mostly Cloudy
6:53 PM 68.0 °F 63.0 °F 84% 29.92 in 10.0 mi Calm Calm - N/A   Partly Cloudy
7:53 PM 66.9 °F 64.0 °F 90% 29.93 in 8.0 mi South 3.5 mph - N/A   Mostly Cloudy
8:53 PM 66.0 °F 63.0 °F 90% 29.94 in 7.0 mi South 3.5 mph - N/A   Partly Cloudy
9:53 PM 64.0 °F 62.1 °F 93% 29.97 in 7.0 mi South 5.8 mph - N/A   Partly Cloudy
10:53 PM 64.0 °F 62.1 °F 93% 29.99 in 6.0 mi South 3.5 mph - N/A   Clear
11:53 PM 63.0 °F 61.0 °F 93% 29.98 in 6.0 mi South 3.5 mph - N/A   Clear